Location: Newark
(48.9886°N, 1.2358°E)
Time: 13:20:20
(UTC+00:00)

SR - Visible Passes

Search period start: 13 November 2019 00:00
Search period end: 23 November 2019 00:00
Orbit: 574 x 882 km, 66.7° (Epoch: 12 November)

Date Brightness Start Highest point End Pass type
(mag) Time Alt. Az. Time Alt. Az. Time Alt. Az.
13 Nov ? 17:05:03 10° SW 17:10:18 53° NW 17:15:59 10° NNE visible
13 Nov ? 18:49:50 10° WNW 18:53:47 19° NNW 18:56:53 13° NNE visible
13 Nov ? 20:35:26 10° NNW 20:36:17 12° NNW 20:36:17 12° NNW visible
14 Nov ? 17:58:56 10° W 18:03:29 25° NNW 18:08:16 10° NNE visible
14 Nov ? 19:44:48 10° NW 19:47:44 14° N 19:47:56 14° N visible
15 Nov ? 17:08:19 10° WSW 17:13:20 36° NW 17:18:41 10° NNE visible
15 Nov ? 18:53:48 10° NW 18:57:13 16° NNW 18:59:35 13° N visible
15 Nov ? 20:38:39 10° NNW 20:38:59 11° NNW 20:38:59 11° NNW visible
16 Nov ? 18:02:46 10° WNW 18:06:47 20° NNW 18:10:59 10° NNE visible
16 Nov ? 19:48:26 10° NNW 19:50:37 13° N 19:50:37 13° N visible
17 Nov ? 17:11:52 10° W 17:16:30 26° NNW 17:21:22 10° NNE visible
17 Nov ? 18:57:45 10° NW 19:00:44 14° N 19:02:14 13° N visible
17 Nov ? 20:41:33 10° NNW 20:41:38 10° NNW 20:41:38 10° NNW visible
18 Nov ? 18:06:44 10° NW 18:10:14 16° NNW 18:13:48 10° NNE visible
18 Nov ? 19:51:41 10° NNW 19:53:15 13° N 19:53:15 13° N visible
19 Nov ? 17:15:42 10° WNW 17:19:49 20° NNW 17:24:05 10° NNE visible
19 Nov ? 19:01:25 10° NNW 19:04:16 14° N 19:04:52 13° N visible
20 Nov ? 18:10:41 10° NW 18:13:44 14° N 18:16:29 11° NNE visible
20 Nov ? 19:54:37 10° NNW 19:55:53 13° N 19:55:53 13° N visible
21 Nov ? 17:19:39 10° NW 17:23:14 16° NNW 17:26:53 10° NNE visible
21 Nov ? 19:04:42 10° NNW 19:07:30 14° N 19:07:30 14° N visible
22 Nov ? 18:14:23 10° NNW 18:17:16 14° N 18:19:07 12° NNE visible
22 Nov ? 19:57:23 10° NNW 19:58:31 14° NNW 19:58:31 14° NNW visible
